When you browse on this site, cookies collect data to enhance your experience and personalize the content and advertising you see.
Visit our Privacy Policy to learn more. By continuing to use the site, you agree to this use of cookies and data.
  • In Switzerland
  • List of Countries
  • For 7 days
  • Water Temperature
  • Satellite Maps
  • Weather Map
  • Weather Widgets
  • user-avatar
    Login

    Hourly Weather Plateaux

    Today, 22 April, Monday

    Time Temperature Precipitation Wind Pressure Humidity
    00:00 +25°C° 0 mm 2 mps 719 mmHg 89%
    01:00 +25°C° 0 mm 2 mps 719 mmHg 90%
    02:00 +24°C° 0 mm 1 mps 718 mmHg 90%
    03:00 +24°C° 0 mm 1 mps 718 mmHg 90%
    04:00 +24°C° 0 mm 1 mps 718 mmHg 91%
    05:00 +24°C° 0 mm 1 mps 719 mmHg 89%
    06:00 +24°C° 0 mm 1 mps 719 mmHg 87%
    07:00 +25°C° 0 mm 1 mps 720 mmHg 86%
    08:00 +27°C° 0 mm 1 mps 720 mmHg 78%
    09:00 +28°C° 0 mm 1 mps 721 mmHg 71%
    10:00 +30°C° 0 mm 1 mps 721 mmHg 64%
    11:00 +31°C° 0 mm 1 mps 721 mmHg 59%
    12:00 +33°C° 0 mm 1 mps 720 mmHg 54%
    13:00 +35°C° 0 mm 2 mps 720 mmHg 50%
    14:00 +34°C° 0 mm 2 mps 719 mmHg 53%
    15:00 +33°C° 0 mm 1 mps 719 mmHg 56%
    16:00 +32°C° 0 mm 1 mps 718 mmHg 59%
    17:00 +31°C° 0 mm 1 mps 718 mmHg 63%
    18:00 +30°C° 0 mm 1 mps 718 mmHg 66%
    19:00 +29°C° 0 mm 1 mps 719 mmHg 69%
    20:00 +28°C° 0 mm 1 mps 719 mmHg 70%
    21:00 +28°C° 0 mm 1 mps 719 mmHg 70%
    22:00 +28°C° 0 mm 1 mps 720 mmHg 71%
    23:00 +28°C° 0 mm 1 mps 719 mmHg 71%

    Tomorrow, 23 April, Tuesday

    Time Temperature Precipitation Wind Pressure Humidity
    00:00 +28°C° 0 mm 1 mps 719 mmHg 71%
    01:00 +27°C° 0 mm 1 mps 719 mmHg 72%
    02:00 +27°C° 0 mm 1 mps 719 mmHg 73%
    03:00 +27°C° 0 mm 1 mps 718 mmHg 75%
    04:00 +26°C° 0 mm 1 mps 718 mmHg 77%
    05:00 +26°C° 0 mm 1 mps 719 mmHg 78%
    06:00 +27°C° 0 mm 1 mps 719 mmHg 78%
    07:00 +27°C° 0 mm 1 mps 720 mmHg 79%
    08:00 +28°C° 0 mm 1 mps 720 mmHg 73%
    09:00 +30°C° 0 mm 1 mps 720 mmHg 67%
    10:00 +32°C° 0 mm 1 mps 721 mmHg 60%
    11:00 +33°C° 0 mm 1 mps 720 mmHg 56%
    12:00 +34°C° 0 mm 1 mps 719 mmHg 51%
    13:00 +35°C° 0 mm 1 mps 719 mmHg 47%
    14:00 +35°C° 0 mm 1 mps 718 mmHg 46%
    15:00 +35°C° 0 mm 1 mps 718 mmHg 44%
    16:00 +35°C° 0 mm 1 mps 717 mmHg 43%
    17:00 +34°C° 0 mm 1 mps 718 mmHg 49%
    18:00 +32°C° 0 mm 1 mps 718 mmHg 54%
    19:00 +30°C° 0 mm 1 mps 718 mmHg 60%
    20:00 +30°C° 0 mm 1 mps 719 mmHg 61%
    21:00 +29°C° 0 mm 1 mps 719 mmHg 62%
    22:00 +27°C° 0 mm 0 mps 720 mmHg 64%
    23:00 +29°C° 0 mm 1 mps 720 mmHg 66%

    Day after tomorrow, 24 April, Wednesday

    Time Temperature Precipitation Wind Pressure Humidity
    00:00 +29°C° 0 mm 1 mps 719 mmHg 68%
    01:00 +28°C° 0 mm 2 mps 719 mmHg 70%
    02:00 +28°C° 0 mm 1 mps 719 mmHg 71%
    03:00 +28°C° 0 mm 1 mps 719 mmHg 72%
    04:00 +27°C° 0 mm 1 mps 718 mmHg 73%
    05:00 +27°C° 0 mm 1 mps 719 mmHg 73%
    06:00 +28°C° 0 mm 1 mps 720 mmHg 74%
    07:00 +28°C° 0 mm 2 mps 720 mmHg 75%
    08:00 +30°C° 0 mm 2 mps 721 mmHg 67%
    09:00 +32°C° 0 mm 2 mps 721 mmHg 59%
    10:00 +35°C° 0 mm 2 mps 722 mmHg 51%
    11:00 +36°C° 0 mm 2 mps 721 mmHg 46%
    12:00 +37°C° 0 mm 2 mps 720 mmHg 42%
    13:00 +38°C° 0 mm 2 mps 719 mmHg 38%
    14:00 +38°C° 0 mm 2 mps 719 mmHg 38%
    15:00 +37°C° 0 mm 1 mps 718 mmHg 39%
    16:00 +36°C° 0 mm 1 mps 718 mmHg 40%
    17:00 +35°C° 0 mm 1 mps 718 mmHg 45%
    18:00 +33°C° 0 mm 1 mps 718 mmHg 51%
    19:00 +32°C° 0 mm 1 mps 719 mmHg 56%
    20:00 +31°C° 0.2 mm 1 mps 719 mmHg 61%
    21:00 +30°C° 0.2 mm 2 mps 720 mmHg 66%
    22:00 +30°C° 0.2 mm 2 mps 721 mmHg 71%
    23:00 +29°C° 0 mm 2 mps 720 mmHg 73%

    25 April, Thursday

    Time Temperature Precipitation Wind Pressure Humidity
    00:00 +29°C° 0 mm 2 mps 720 mmHg 75%
    01:00 +28°C° 0 mm 2 mps 720 mmHg 77%
    02:00 +28°C° 0 mm 2 mps 720 mmHg 78%
    03:00 +28°C° 0 mm 2 mps 720 mmHg 79%
    04:00 +28°C° 0 mm 2 mps 720 mmHg 80%
    05:00 +28°C° 0 mm 2 mps 720 mmHg 81%
    06:00 +28°C° 0 mm 2 mps 721 mmHg 81%
    07:00 +28°C° 0 mm 3 mps 721 mmHg 82%
    08:00 +30°C° 0 mm 2 mps 721 mmHg 74%
    09:00 +32°C° 0 mm 2 mps 722 mmHg 65%
    10:00 +34°C° 0 mm 2 mps 722 mmHg 57%
    11:00 +35°C° 0 mm 2 mps 721 mmHg 54%
    12:00 +36°C° 0 mm 2 mps 720 mmHg 51%
    13:00 +36°C° 0 mm 1 mps 719 mmHg 48%
    14:00 +35°C° 0 mm 1 mps 718 mmHg 49%
    15:00 +35°C° 0 mm 1 mps 718 mmHg 49%
    16:00 +35°C° 0 mm 1 mps 717 mmHg 50%
    17:00 +34°C° 0 mm 1 mps 718 mmHg 54%
    18:00 +32°C° 0 mm 1 mps 718 mmHg 58%
    19:00 +31°C° 0 mm 1 mps 719 mmHg 62%
    20:00 +30°C° 0.1 mm 1 mps 719 mmHg 66%
    21:00 +30°C° 0.1 mm 2 mps 719 mmHg 69%
    22:00 +29°C° 0.1 mm 2 mps 719 mmHg 72%
    23:00 +29°C° 0 mm 2 mps 719 mmHg 74%

    26 April, Friday

    Time Temperature Precipitation Wind Pressure Humidity
    00:00 +28°C° 0 mm 2 mps 719 mmHg 76%
    01:00 +28°C° 0 mm 2 mps 718 mmHg 77%
    02:00 +28°C° 0 mm 2 mps 718 mmHg 77%
    03:00 +28°C° 0 mm 2 mps 719 mmHg 78%
    04:00 +27°C° 0 mm 2 mps 719 mmHg 78%
    05:00 +28°C° 0 mm 2 mps 719 mmHg 77%
    06:00 +28°C° 0 mm 3 mps 720 mmHg 77%
    07:00 +28°C° 0 mm 3 mps 720 mmHg 77%
    08:00 +30°C° 1.4 mm 2 mps 720 mmHg 73%
    09:00 +31°C° 1.4 mm 2 mps 721 mmHg 68%
    10:00 +34°C° 1.4 mm 2 mps 721 mmHg 63%
    11:00 +34°C° 1.5 mm 2 mps 720 mmHg 60%
    12:00 +35°C° 1.5 mm 2 mps 720 mmHg 56%
    13:00 +36°C° 1.5 mm 2 mps 719 mmHg 52%
    14:00 +36°C° 0 mm 2 mps 719 mmHg 52%
    15:00 +35°C° 0 mm 2 mps 718 mmHg 52%
    16:00 +35°C° 0 mm 2 mps 718 mmHg 53%
    17:00 +34°C° 0.2 mm 2 mps 718 mmHg 60%
    18:00 +31°C° 0.2 mm 2 mps 719 mmHg 68%
    19:00 +29°C° 0.2 mm 2 mps 719 mmHg 76%
    20:00 +28°C° 0.4 mm 2 mps 719 mmHg 78%
    21:00 +28°C° 0.4 mm 2 mps 719 mmHg 81%
    22:00 +27°C° 0.4 mm 2 mps 719 mmHg 83%
    23:00 +27°C° 0.1 mm 2 mps 719 mmHg 83%

    27 April, Saturday

    Time Temperature Precipitation Wind Pressure Humidity
    00:00 +27°C° 0.1 mm 2 mps 719 mmHg 84%
    01:00 +27°C° 0.1 mm 2 mps 718 mmHg 84%
    02:00 +26°C° 0 mm 3 mps 718 mmHg 85%
    03:00 +26°C° 0 mm 3 mps 718 mmHg 86%
    04:00 +26°C° 0 mm 3 mps 718 mmHg 87%
    05:00 +26°C° 0 mm 3 mps 719 mmHg 87%
    06:00 +26°C° 0 mm 3 mps 720 mmHg 88%
    07:00 +27°C° 0 mm 3 mps 720 mmHg 88%
    08:00 +28°C° 0.8 mm 3 mps 721 mmHg 80%
    09:00 +30°C° 0.8 mm 2 mps 721 mmHg 72%
    10:00 +32°C° 0.8 mm 2 mps 721 mmHg 64%
    11:00 +34°C° 0.1 mm 2 mps 720 mmHg 59%
    12:00 +35°C° 0.1 mm 2 mps 720 mmHg 54%
    13:00 +36°C° 0.1 mm 2 mps 719 mmHg 48%
    14:00 +36°C° 0 mm 2 mps 719 mmHg 49%
    15:00 +36°C° 0 mm 2 mps 718 mmHg 49%
    16:00 +36°C° 0 mm 2 mps 718 mmHg 50%
    17:00 +34°C° 0 mm 2 mps 718 mmHg 55%
    18:00 +32°C° 0 mm 2 mps 719 mmHg 60%
    19:00 +30°C° 0 mm 2 mps 719 mmHg 65%
    20:00 +30°C° 0.1 mm 2 mps 719 mmHg 67%
    21:00 +29°C° 0.1 mm 1 mps 719 mmHg 69%
    22:00 +29°C° 0.1 mm 1 mps 719 mmHg 72%
    23:00 +28°C° 1.3 mm 1 mps 719 mmHg 77%
    Show more